Overview Statistics Trail Chart Weather Telemetry Raw packets
 

This is the latest recevied weather packets stored in our database for station/object K7NDG. If no packets are shown the sender has not sent any weather packets the latest 10 day(s).

<< 104 105 106 107 108 109 110 >>
Time Temp. Humidity Pressure Rain* Wind** Luminosity Snow
1787779830 23.33° C 61% - 0 mm - - -
1787779529 22.78° C 63% - 0 mm - - -
1787779224 22.78° C 62% - 0 mm - - -
1787778923 22.22° C 64% - 0 mm - - -
1787778619 22.22° C 63% - 0 mm - - -
1787778314 22.22° C 63% - 0 mm - - -
1787778010 22.22° C 63% - 0 mm - - -
1787777704 22.78° C 61% - 0 mm - - -
1787777401 22.78° C 61% - 0 mm - - -
1787777100 22.78° C 64% - 0 mm - - -
1787776799 22.22° C 65% - 0 mm - - -
1787776498 21.67° C 67% - 0 mm - - -
1787776195 21.67° C 67% - 0 mm - - -
1787775890 21.67° C 67% - 0 mm - - -
1787775585 21.11° C 68% - 0 mm - - -
1787775284 21.11° C 68% - 0 mm - - -
1787774978 21.67° C 68% - 0 mm - - -
1787774677 21.11° C 66% - 0 mm - - -
1787774377 21.11° C 68% - 0 mm - - -
1787774072 20.56° C 70% - 0 mm - - -
1787773770 20.56° C 68% - 0 mm - - -
1787773465 21.11° C 68% - 0 mm - - -
1787773161 21.11° C 67% - 0 mm - - -
1787772856 21.11° C 67% - 0 mm - - -
1787772555 21.11° C 68% - 0 mm - - -

* Rain latest hour (hover to see other rain measurements)
** Current wind speed in m/s (hover to see current wind gust speed)